Weather History for Adana Incirlik AFB, Turkey

Change the Weather History Date:

Tuesday, February 5, 2013

  Actual Average Record
Temperature  
Mean Temperature 58 °F -  
Max Temperature 69 °F 62 °F 73 °F (2002)
Min Temperature 46 °F 45 °F 21 °F (1997)
Degree Days  
Heating Degree Days 8    
Growing Degree Days 8 (Base 50)    
Moisture  
Dew Point 44 °F    
Average Humidity 60    
Maximum Humidity 87    
Minimum Humidity 43    
Precipitation  
Precipitation 0.00 in - - ()
Sea Level Pressure  
Sea Level Pressure 30.03 in    
Wind  
Wind Speed 9 mph ()    
Max Wind Speed 21 mph    
Max Gust Speed -    
Visibility 6.8 miles    
Events      
Averages and records for this station are not official NWS values.
T = Trace of Precipitation, MM = Missing Value Source: Averaged Metar Reports

Daily Weather History Graph

Daily Weather History Graph

Search for Another Location

Airport:

Trip Planner

Search our weather history database for the weather conditions in past years. The results will help you decide how hot, cold, wet, or windy it might be!

Date:

Astronomy

Feb. 05, 2013 Rise Set
Actual Time 6:37 AM EET 5:07 PM EET
Civil Twilight 6:10 AM EET 5:34 PM EET
Nautical Twilight 5:39 AM EET 6:05 PM EET
Astronomical Twilight 5:09 AM EET 6:36 PM EET
Moon 1:54 AM EET (2/5) 12:08 PM EET (2/5)
Length of Visible Light 11h 24m
Length of Day
10h 30m
Waning Crescent, 30% of the Moon is Illuminated
Feb 5
Waning Crescent
Feb 10
New
Feb 17
First Quarter
Feb 25
Full
Mar 4
Last Quarter

Hourly Weather History & Observations

Time (EET) Temp. Dew Point Humidity Pressure Visibility Wind Dir Wind Speed Gust Speed Precip Events Conditions
12:20 AM 51.8 °F 44.6 °F 76% 30.15 in - NNE 4.6 mph - N/A   Clear
12:50 AM 51.8 °F 44.6 °F 76% 30.12 in - NNE 5.8 mph - N/A   Clear
1:20 AM 51.8 °F 42.8 °F 71% 30.12 in - NNE 3.5 mph - N/A   Clear
1:50 AM 53.6 °F 42.8 °F 67% 30.12 in - NNE 5.8 mph - N/A   Clear
2:00 AM 53 °F 42 °F 57% 30.13 in 6 mi NNE 5.8 mph - -  
2:20 AM 51.8 °F 42.8 °F 71% 30.09 in - NNE 6.9 mph - N/A   Clear
2:50 AM 51.8 °F 41.0 °F 67% 30.09 in - NNE 6.9 mph - N/A   Clear
3:20 AM 53.6 °F 41.0 °F 62% 30.09 in - NNE 12.7 mph - N/A   Clear
3:50 AM 53.6 °F 41.0 °F 62% 30.06 in - NNE 3.5 mph - N/A   Clear
4:20 AM 51.8 °F 41.0 °F 67% 30.09 in - NNW 2.3 mph - N/A   Clear
4:50 AM 50.0 °F 42.8 °F 76% 30.06 in - NNW 4.6 mph - N/A   Clear
5:20 AM 48.2 °F 42.8 °F 82% 30.06 in - Variable 2.3 mph - N/A   Clear
5:50 AM 48.2 °F 42.8 °F 82% 30.06 in - NW 5.8 mph - N/A   Clear
6:20 AM 48.2 °F 44.6 °F 87% 30.06 in - West 2.3 mph - N/A   Clear
6:50 AM 48.2 °F 42.8 °F 82% 30.06 in - WNW 3.5 mph - N/A   Clear
7:20 AM 48.2 °F 44.6 °F 87% 30.06 in - Variable 2.3 mph - N/A   Clear
7:50 AM 50.0 °F 46.4 °F 87% 30.06 in - NE 10.4 mph - N/A   Clear
8:00 AM 50 °F 45 °F 78% 30.09 in 6 mi NE 10.4 mph - -   Clear
8:20 AM 57.2 °F 41.0 °F 55% 30.06 in - North 9.2 mph - N/A   Clear
8:50 AM 59.0 °F 41.0 °F 51% 30.06 in - NNE 10.4 mph - N/A   Clear
9:20 AM 59.0 °F 41.0 °F 51% 30.06 in - NNE 13.8 mph - N/A   Clear
9:50 AM 60.8 °F 41.0 °F 48% 30.06 in - NE 13.8 mph - N/A   Clear
10:20 AM 62.6 °F 42.8 °F 48% 30.06 in - NE 16.1 mph - N/A   Clear
10:50 AM 66.2 °F 42.8 °F 43% 30.06 in - ENE 18.4 mph - N/A   Clear
11:20 AM 66.2 °F 44.6 °F 46% 30.04 in - NE 17.3 mph - N/A   Clear
11:50 AM 66.2 °F 44.6 °F 46% 30.04 in - NE 18.4 mph - N/A   Clear
12:20 PM 68.0 °F 44.6 °F 43% 30.01 in - NE 20.7 mph - N/A   Clear
12:50 PM 68.0 °F 44.6 °F 43% 30.01 in - NE 16.1 mph - N/A   Clear
1:20 PM 68.0 °F 44.6 °F 43% 29.98 in - ENE 18.4 mph - N/A   Clear
1:50 PM 68.0 °F 44.6 °F 43% 29.98 in - ENE 20.7 mph - N/A   Clear
2:20 PM 68.0 °F 44.6 °F 43% 29.98 in - NE 13.8 mph - N/A   Clear
2:50 PM 68.0 °F 44.6 °F 43% 29.98 in - ENE 10.4 mph - N/A   Clear
3:20 PM 68.0 °F 44.6 °F 43% 29.98 in - ENE 13.8 mph - N/A   Clear
3:50 PM 66.2 °F 46.4 °F 49% 29.98 in 6.2 mi NE 10.4 mph - N/A   Scattered Clouds
4:20 PM 64.4 °F 46.4 °F 52% 29.98 in 6.2 mi NE 12.7 mph - N/A   Scattered Clouds
4:50 PM 62.6 °F 46.4 °F 55% 29.95 in 6.2 mi NE 12.7 mph - N/A   Mostly Cloudy
5:20 PM 60.8 °F 44.6 °F 55% 29.95 in 6.2 mi NE 13.8 mph - N/A   Mostly Cloudy
5:50 PM 60.8 °F 44.6 °F 55% 29.95 in 6.2 mi NE 16.1 mph - N/A   Mostly Cloudy
6:20 PM 59.0 °F 44.6 °F 59% 29.98 in 6.2 mi NE 16.1 mph - N/A   Mostly Cloudy
6:50 PM 59.0 °F 44.6 °F 59% 29.98 in - NE 17.3 mph - N/A   Clear
7:20 PM 59.0 °F 44.6 °F 59% 29.98 in - NE 17.3 mph - N/A   Clear
7:50 PM 59.0 °F 42.8 °F 55% 29.98 in - ENE 18.4 mph - N/A   Clear
8:00 PM 59 °F 44 °F 47% 29.98 in 12 mi ENE 18.4 mph - -   Mostly Cloudy
8:20 PM 59.0 °F 44.6 °F 59% 29.98 in - NE 17.3 mph - N/A   Clear
8:50 PM 59.0 °F 44.6 °F 59% 29.98 in - NE 18.4 mph - N/A   Clear
9:20 PM 59.0 °F 42.8 °F 55% 29.98 in - NE 18.4 mph - N/A   Clear
9:50 PM 57.2 °F 42.8 °F 59% 29.98 in - NE 18.4 mph - N/A   Clear
10:20 PM 57.2 °F 42.8 °F 59% 29.98 in - NE 16.1 mph - N/A   Clear
10:50 PM 57.2 °F 42.8 °F 59% 29.98 in - NE 15.0 mph - N/A   Clear
11:20 PM 57.2 °F 42.8 °F 59% 29.98 in - NE 15.0 mph - N/A   Clear
11:50 PM 57.2 °F 41.0 °F 55% 29.98 in - NE 18.4 mph - N/A   Clear